Вернуться в каталог

CZ-6A DEB

АктивенPO
NORAD 54630·DEBRIS·🇨🇳 China

Запущен Nov 11, 2022 с Taiyuan Satellite Launch Center

Loading…

Ближайшие Пролёты (ближайшие 24 часа)

TLE

СвежийSource: Space-Track

Эпоха: Sep 13, 2026, 17:26 UTC

1 54630U 22151PG  26256.72706374  .00009415  00000-0  11882-2 0  9997
2 54630  98.6236 334.4316 0056122 349.5454  10.4584 14.81052163202544

Отслеживайте CZ-6A DEB в реальном времени с AllMySat

Download on the App Store